"startDT [UTC]","vpos","CH4 [ppm]","stdev(CH4) [ppm]","CO2 [ppm]","stdev(CO2) [ppm]","H2O_reported [%]","stdev(H2O_reported)","CavityPressure [torr]","CavityTemp [C]","OutletValve","CH4_dry [ppm]","CO2_dry [ppm]","DasTemp [C]","EtalonTemp [C]","WarmBoxTemp [C]","MPVPosition","T_ECpre [C]","T_EC1 [C]","T_EC2 [C]","p_inlet [hPa]","p_in [hPa]","p_out [hPa]","T_inlet [C]","RH_inlet [%]","dwpt_inlet [C]","T_vent [C]","RH_vent [%]","dwpt_vent [C]","flow_vent [l min-1]","flow_inlet [l min-1]","dwpt_sample [C]","T_room [C]"
2015-05-26 00:00:00,0.0,1.90034,0.00046,403.032,0.028,0.3705,0.0018,139.994,44.999,34176.40629,1.90730,404.846,31.888,45.068,45.000,0.00,0.09,-272.72,-272.78,-4,979,-3,21.9,10.4,-10.6,21.6,10.7,-10.5,5.73,1.95,-8.3,26.1
2015-05-26 00:01:00,0.0,1.90012,0.00030,403.015,0.025,0.3748,0.0015,139.999,44.999,34177.06616,1.90723,404.849,31.875,45.068,45.000,0.00,0.09,-272.72,-272.77,-4,980,-3,21.9,10.5,-10.5,21.6,10.8,-10.4,5.73,1.95,-8.3,26.2
2015-05-26 00:02:00,0.0,1.90017,0.00032,403.012,0.035,0.3738,0.0020,140.003,44.999,34177.10689,1.90720,404.843,31.880,45.068,45.000,0.00,0.09,-272.72,-272.78,-4,980,-3,21.9,10.5,-10.5,21.6,10.8,-10.4,5.73,1.95,-8.3,26.2
2015-05-26 00:03:00,0.0,1.90021,0.00045,403.036,0.017,0.3736,0.0014,140.001,45.000,34176.71232,1.90728,404.867,31.878,45.068,45.000,0.00,0.09,-272.72,-272.78,-4,980,-3,21.9,10.5,-10.6,21.6,10.8,-10.4,5.73,1.96,-8.3,26.1
2015-05-26 00:04:00,0.0,1.89988,0.00036,402.984,0.035,0.3752,0.0019,140.003,45.000,34177.79227,1.90700,404.823,31.877,45.068,45.000,0.00,0.09,-272.72,-272.78,-4,980,-3,21.9,10.5,-10.5,21.6,10.8,-10.4,5.73,1.95,-8.3,26.1
2015-05-26 00:05:00,0.0,1.90016,0.00030,403.005,0.034,0.3746,0.0017,140.001,45.000,34175.65425,1.90717,404.838,31.875,45.068,45.000,0.00,0.09,-272.72,-272.78,-4,980,-3,21.9,10.5,-10.5,21.6,10.8,-10.4,5.73,1.96,-8.2,26.2
2015-05-26 00:06:00,0.0,1.90035,0.00031,403.024,0.032,0.3739,0.0024,140.000,45.000,34174.22506,1.90745,404.856,31.870,45.068,45.000,0.00,0.09,-272.72,-272.78,-4,980,-3,21.9,10.5,-10.5,21.6,10.8,-10.4,5.73,1.96,-8.3,26.1
2015-05-26 00:07:00,0.0,1.90007,0.00051,403.007,0.027,0.3767,0.0017,139.997,44.999,34175.36096,1.90720,404.854,31.875,45.068,45.000,0.00,0.09,-272.73,-272.78,-5,980,-3,21.9,10.5,-10.4,21.6,10.9,-10.3,5.73,1.96,-8.3,26.2
2015-05-26 00:08:00,0.0,1.90022,0.00039,403.011,0.030,0.3743,0.0019,140.003,45.000,34175.59433,1.90730,404.843,31.871,45.068,45.000,0.00,0.09,-272.72,-272.77,-4,980,-3,21.9,10.5,-10.5,21.6,10.9,-10.3,5.73,1.96,-8.3,26.2
2015-05-26 00:09:00,0.0,1.89984,0.00035,403.023,0.026,0.3733,0.0015,139.996,45.000,34175.39523,1.90688,404.852,31.872,45.068,45.000,0.00,0.09,-272.72,-272.78,-4,980,-3,21.9,10.5,-10.5,21.6,10.8,-10.4,5.73,1.96,-8.3,26.2
2015-05-26 00:10:00,0.0,1.90005,0.00031,403.009,0.032,0.3770,0.0031,140.004,45.000,34178.66162,1.90717,404.853,31.873,45.068,45.000,0.00,0.09,-272.73,-272.78,-5,980,-3,21.9,10.6,-10.4,21.6,10.9,-10.3,5.73,1.96,-8.3,26.1
2015-05-26 00:11:00,0.0,1.89991,0.00045,402.965,0.033,0.3800,0.0015,140.003,45.000,34176.44156,1.90709,404.832,31.864,45.068,45.000,0.00,0.09,-272.72,-272.77,-5,980,-3,21.9,10.7,-10.3,21.6,11.0,-10.2,5.73,1.96,-8.3,26.1
2015-05-26 00:12:00,0.0,1.90004,0.00026,402.968,0.052,0.3771,0.0018,139.998,45.000,34175.74740,1.90721,404.810,31.857,45.068,45.000,0.00,0.09,-272.72,-272.77,-5,980,-3,21.9,10.6,-10.4,21.5,10.9,-10.3,5.73,1.96,-8.3,26.1
2015-05-26 00:13:00,0.0,1.89999,0.00042,402.984,0.032,0.3755,0.0015,139.995,45.000,34173.11365,1.90704,404.826,31.843,45.068,45.000,0.00,0.09,-272.72,-272.77,-5,980,-3,21.9,10.5,-10.5,21.6,10.9,-10.3,5.73,1.97,-8.3,26.1
2015-05-26 00:14:00,0.0,1.89993,0.00033,403.006,0.035,0.3742,0.0020,140.005,45.000,34173.98282,1.90702,404.839,31.851,45.068,45.000,0.00,0.09,-272.72,-272.78,-5,979,-3,21.9,10.5,-10.5,21.5,10.8,-10.4,5.73,1.97,-8.3,26.1
2015-05-26 00:15:00,0.0,1.90037,0.00043,403.011,0.029,0.3729,0.0021,140.005,45.000,34172.88411,1.90742,404.837,31.859,45.068,45.000,0.00,0.09,-272.72,-272.77,-5,980,-3,21.9,10.4,-10.6,21.5,10.8,-10.5,5.73,1.96,-8.2,26.1
2015-05-26 00:16:00,0.0,1.90034,0.00036,403.028,0.047,0.3726,0.0014,140.000,45.000,34171.59389,1.90737,404.854,31.827,45.068,45.000,0.00,0.09,-272.73,-272.78,-5,980,-3,21.9,10.4,-10.6,21.5,10.8,-10.5,5.73,1.97,-8.3,26.1
2015-05-26 00:17:00,0.0,1.90022,0.00016,403.004,0.037,0.3724,0.0019,140.000,45.000,34170.32807,1.90729,404.830,31.824,45.068,45.000,0.00,0.09,-272.72,-272.78,-4,980,-3,21.9,10.5,-10.5,21.5,10.8,-10.4,5.73,1.97,-8.2,26.1
2015-05-26 00:18:00,0.0,1.90004,0.00044,402.971,0.030,0.3738,0.0011,139.999,45.000,34171.84382,1.90710,404.801,31.820,45.068,45.000,0.00,0.09,-272.71,-272.78,-5,980,-3,21.9,10.5,-10.6,21.5,10.8,-10.4,5.73,1.96,-8.3,26.1
2015-05-26 00:19:00,0.0,1.90005,0.00031,402.982,0.031,0.3768,0.0015,139.998,45.000,34169.79996,1.90717,404.828,31.816,45.068,45.000,0.00,0.09,-272.72,-272.78,-4,979,-3,21.9,10.5,-10.5,21.5,10.9,-10.3,5.73,1.97,-8.3,26.0
2015-05-26 00:20:00,0.0,1.90030,0.00030,402.976,0.045,0.3753,0.0021,140.005,45.000,34171.30729,1.90740,404.815,31.815,45.068,45.000,0.00,0.09,-272.72,-272.79,-4,980,-3,21.9,10.5,-10.5,21.5,10.9,-10.3,5.73,1.97,-8.3,26.1
2015-05-26 00:21:00,0.0,1.90028,0.00045,402.996,0.031,0.3746,0.0018,140.000,45.000,34167.59677,1.90732,404.829,31.816,45.069,45.000,0.00,0.09,-272.72,-272.77,-4,980,-3,21.9,10.5,-10.5,21.5,10.8,-10.4,5.73,1.96,-8.3,26.2
2015-05-26 00:22:00,0.0,1.90023,0.00036,403.001,0.024,0.3727,0.0015,139.999,45.000,34167.62587,1.90730,404.828,31.829,45.068,45.000,0.00,0.09,-272.72,-272.77,-4,980,-3,21.9,10.4,-10.6,21.5,10.8,-10.4,5.73,1.97,-8.2,26.1
2015-05-26 00:23:00,0.0,1.90036,0.00045,402.987,0.038,0.3718,0.0017,139.999,45.000,34167.32558,1.90738,404.807,31.824,45.068,45.000,0.00,0.09,-272.73,-272.78,-5,980,-3,21.9,10.4,-10.6,21.5,10.8,-10.5,5.73,1.96,-8.3,26.1
2015-05-26 00:24:00,0.0,1.90034,0.00032,403.021,0.041,0.3713,0.0019,140.000,45.000,34166.00044,1.90733,404.839,31.841,45.068,45.000,0.00,0.09,-272.72,-272.78,-4,979,-3,21.9,10.4,-10.6,21.5,10.8,-10.5,5.73,1.96,-8.3,26.1
2015-05-26 00:25:00,0.0,1.90037,0.00040,403.029,0.030,0.3705,0.0016,139.998,45.000,34165.42834,1.90738,404.843,31.862,45.068,45.000,0.00,0.09,-272.72,-272.77,-5,979,-3,21.9,10.4,-10.7,21.5,10.7,-10.5,5.73,1.97,-8.3,26.0
2015-05-26 00:26:00,0.0,1.90040,0.00036,403.007,0.024,0.3704,0.0030,140.001,45.000,34165.92183,1.90744,404.823,31.871,45.068,45.000,0.00,0.09,-272.72,-272.78,-4,979,-3,21.9,10.4,-10.7,21.5,10.7,-10.5,5.73,1.96,-8.2,26.0
2015-05-26 00:27:00,0.0,1.90011,0.00038,403.000,0.032,0.3705,0.0010,140.000,45.000,34167.29044,1.90709,404.816,31.874,45.068,45.000,0.00,0.09,-272.72,-272.78,-5,980,-3,21.9,10.4,-10.7,21.5,10.7,-10.5,5.73,1.95,-8.3,26.0
2015-05-26 00:28:00,0.0,1.90037,0.00026,403.007,0.031,0.3722,0.0021,139.998,45.000,34163.70379,1.90742,404.829,31.874,45.068,45.000,0.00,0.09,-272.71,-272.77,-4,979,-3,21.9,10.4,-10.6,21.5,10.7,-10.5,5.73,1.94,-8.3,26.0
2015-05-26 00:29:00,0.0,1.90036,0.00032,402.988,0.029,0.3745,0.0018,140.002,45.000,34167.05457,1.90742,404.821,31.874,45.068,45.000,0.00,0.09,-272.71,-272.78,-4,979,-3,21.9,10.5,-10.5,21.5,10.8,-10.4,5.73,1.95,-8.2,26.1
2015-05-26 00:30:00,0.0,1.90037,0.00022,402.964,0.040,0.3753,0.0021,140.001,45.000,34167.61262,1.90748,404.803,31.874,45.068,45.000,0.00,0.09,-272.72,-272.78,-4,979,-3,21.9,10.5,-10.5,21.5,10.8,-10.4,5.73,1.95,-8.3,26.1
2015-05-26 00:31:00,0.0,1.90017,0.00048,402.954,0.032,0.3759,0.0018,139.996,45.000,34168.40497,1.90730,404.795,31.867,45.068,45.000,0.00,0.09,-272.72,-272.78,-4,979,-3,21.9,10.5,-10.5,21.5,10.9,-10.3,5.73,1.95,-8.2,26.1
2015-05-26 00:32:00,0.0,1.90014,0.00027,402.990,0.035,0.3770,0.0020,140.000,45.000,34169.61837,1.90722,404.837,31.871,45.068,45.000,0.00,0.09,-272.72,-272.78,-4,979,-3,21.9,10.6,-10.4,21.5,10.9,-10.3,5.73,1.95,-8.2,26.2
2015-05-26 00:33:00,0.0,1.89999,0.00044,402.975,0.032,0.3800,0.0016,140.000,45.000,34169.09567,1.90719,404.837,31.863,45.068,45.000,0.00,0.09,-272.72,-272.79,-4,979,-3,21.9,10.7,-10.3,21.5,11.0,-10.2,5.73,1.95,-8.2,26.1
2015-05-26 00:34:00,0.0,1.89980,0.00040,402.957,0.040,0.3778,0.0021,139.999,45.000,34169.15201,1.90694,404.806,31.857,45.068,45.000,0.00,0.09,-272.72,-272.78,-4,979,-3,21.9,10.6,-10.4,21.5,11.0,-10.2,5.73,1.95,-8.2,26.1
2015-05-26 00:35:00,0.0,1.90010,0.00030,402.968,0.019,0.3742,0.0017,139.997,45.000,34169.18607,1.90718,404.802,31.846,45.068,45.000,0.00,0.09,-272.72,-272.78,-4,979,-3,21.9,10.5,-10.5,21.5,10.8,-10.4,5.73,1.95,-8.2,26.1
2015-05-26 00:36:00,0.0,1.89991,0.00039,403.008,0.036,0.3732,0.0019,139.996,45.000,34170.56220,1.90695,404.836,31.846,45.069,45.000,0.00,0.09,-272.72,-272.78,-4,980,-3,21.9,10.4,-10.6,21.5,10.8,-10.4,5.73,1.96,-8.3,26.1
2015-05-26 00:37:00,0.0,1.89998,0.00032,402.995,0.026,0.3724,0.0025,140.002,45.000,34170.37776,1.90704,404.819,31.862,45.069,45.000,0.00,0.09,-272.72,-272.78,-4,980,-3,21.9,10.4,-10.6,21.5,10.8,-10.4,5.73,1.95,-8.2,26.2
2015-05-26 00:38:00,0.0,1.90020,0.00030,402.979,0.021,0.3738,0.0017,140.002,45.000,34169.86077,1.90725,404.810,31.872,45.069,45.000,0.00,0.09,-272.72,-272.77,-4,979,-3,21.9,10.5,-10.5,21.5,10.8,-10.4,5.73,1.96,-8.2,26.1
2015-05-26 00:39:00,0.0,1.90016,0.00039,402.985,0.021,0.3737,0.0015,139.999,45.000,34168.83958,1.90722,404.815,31.867,45.068,45.000,0.00,0.09,-272.72,-272.77,-5,980,-3,21.9,10.5,-10.5,21.5,10.8,-10.4,5.73,1.95,-8.2,26.1
2015-05-26 00:40:00,0.0,1.90001,0.00032,402.969,0.024,0.3746,0.0014,140.003,45.000,34170.46021,1.90711,404.806,31.860,45.068,45.000,0.00,0.09,-272.73,-272.78,-5,979,-3,21.9,10.5,-10.5,21.5,10.8,-10.4,5.73,1.97,-8.2,26.1
2015-05-26 00:41:00,0.0,1.90005,0.00022,402.996,0.043,0.3745,0.0016,140.000,45.000,34170.70451,1.90711,404.828,31.838,45.069,45.000,0.00,0.09,-272.72,-272.78,-5,979,-3,21.9,10.4,-10.6,21.5,10.8,-10.4,5.73,1.96,-8.3,26.2
2015-05-26 00:42:00,0.0,1.89972,0.00052,402.963,0.030,0.3720,0.0017,140.000,45.000,34173.26875,1.90675,404.786,31.828,45.068,45.000,0.00,0.09,-272.71,-272.78,-5,980,-3,21.9,10.4,-10.6,21.5,10.8,-10.4,5.73,1.96,-8.2,26.2
2015-05-26 00:43:00,0.0,1.89972,0.00041,402.966,0.029,0.3739,0.0022,140.002,45.000,34172.84387,1.90679,404.798,31.814,45.069,45.000,0.00,0.09,-272.72,-272.78,-4,979,-3,21.9,10.5,-10.5,21.5,10.8,-10.4,5.73,1.97,-8.2,26.1
2015-05-26 00:44:00,0.0,1.89972,0.00034,402.945,0.027,0.3735,0.0016,139.998,45.000,34173.51923,1.90682,404.773,31.818,45.069,45.000,0.00,0.09,-272.72,-272.78,-4,980,-3,21.9,10.5,-10.5,21.5,10.8,-10.4,5.73,1.96,-8.3,26.1
2015-05-26 00:45:00,0.0,1.89973,0.00022,402.973,0.031,0.3756,0.0023,140.003,45.000,34175.52239,1.90680,404.813,31.823,45.069,45.000,0.00,0.09,-272.71,-272.77,-5,979,-3,21.9,10.5,-10.5,21.5,10.8,-10.4,5.73,1.97,-8.2,26.1
2015-05-26 00:46:00,0.0,1.89943,0.00030,402.939,0.037,0.3783,0.0024,140.001,45.000,34177.59563,1.90660,404.794,31.836,45.069,45.000,0.00,0.09,-272.72,-272.78,-4,979,-3,21.9,10.6,-10.4,21.5,10.9,-10.2,5.73,1.97,-8.2,26.1
2015-05-26 00:47:00,0.0,1.89948,0.00035,402.940,0.032,0.3784,0.0012,139.996,45.000,34173.94614,1.90666,404.793,31.864,45.068,45.000,0.00,0.09,-272.73,-272.78,-5,980,-3,21.9,10.6,-10.4,21.5,11.0,-10.2,5.73,1.97,-8.2,26.1
2015-05-26 00:48:00,0.0,1.89955,0.00042,402.929,0.041,0.3822,0.0018,139.999,45.000,34173.78587,1.90675,404.801,31.874,45.068,45.000,0.00,0.09,-272.72,-272.78,-4,979,-3,21.9,10.7,-10.2,21.5,11.0,-10.1,5.73,1.97,-8.2,26.1
2015-05-26 00:49:00,0.0,1.89952,0.00036,402.916,0.031,0.3861,0.0019,139.998,45.000,34173.26381,1.90678,404.809,31.874,45.068,45.000,0.00,0.09,-272.72,-272.78,-5,980,-3,21.9,10.8,-10.1,21.5,11.2,-10.0,5.73,1.97,-8.2,26.1
2015-05-26 00:50:00,0.0,1.89969,0.00029,402.907,0.033,0.3870,0.0015,140.004,45.000,34173.84003,1.90699,404.802,31.885,45.068,45.000,0.00,0.09,-272.73,-272.78,-5,979,-3,21.9,10.9,-10.0,21.5,11.2,-9.9,5.73,1.97,-8.2,26.1
2015-05-26 00:51:00,0.0,1.89943,0.00026,402.913,0.042,0.3855,0.0021,139.997,45.000,34171.82215,1.90676,404.801,31.884,45.068,45.000,0.00,0.09,-272.72,-272.77,-5,979,-3,21.9,10.8,-10.1,21.5,11.2,-9.9,5.73,1.97,-8.2,26.1
2015-05-26 00:52:00,0.0,1.89957,0.00032,402.935,0.039,0.3810,0.0021,139.999,45.000,34172.64841,1.90676,404.806,31.875,45.068,45.000,0.00,0.09,-272.72,-272.77,-5,979,-3,21.9,10.7,-10.3,21.5,11.1,-10.1,5.73,1.97,-8.2,26.1
2015-05-26 00:53:00,0.0,1.89973,0.00053,402.953,0.032,0.3767,0.0017,140.001,45.000,34172.05984,1.90683,404.796,31.873,45.068,45.000,0.00,0.09,-272.73,-272.78,-4,979,-3,21.9,10.6,-10.4,21.5,11.0,-10.2,5.73,1.96,-8.2,26.1
2015-05-26 00:54:00,0.0,1.89961,0.00032,402.936,0.037,0.3777,0.0021,139.999,45.000,34171.83378,1.90675,404.786,31.875,45.069,45.000,0.00,0.09,-272.72,-272.78,-5,979,-3,21.9,10.6,-10.4,21.5,10.9,-10.3,5.73,1.96,-8.2,26.1
2015-05-26 00:55:00,0.0,1.89972,0.00024,402.942,0.024,0.3803,0.0016,140.003,45.000,34173.48906,1.90690,404.804,31.875,45.069,45.000,0.00,0.09,-272.72,-272.78,-4,979,-3,21.9,10.6,-10.3,21.5,11.0,-10.2,5.73,1.96,-8.2,26.1
2015-05-26 00:56:00,0.0,1.89966,0.00018,402.922,0.024,0.3830,0.0014,139.999,45.000,34172.27737,1.90689,404.799,31.880,45.068,45.000,0.00,0.09,-272.72,-272.78,-5,979,-3,21.9,10.7,-10.2,21.6,11.1,-10.1,5.73,1.96,-8.2,26.1
2015-05-26 00:57:00,0.0,1.89946,0.00047,402.913,0.035,0.3849,0.0018,140.000,45.000,34173.25573,1.90677,404.796,31.875,45.069,45.000,0.00,0.09,-272.72,-272.79,-5,979,-3,21.9,10.8,-10.1,21.5,11.1,-10.0,5.73,1.95,-8.2,26.1
2015-05-26 00:58:00,0.0,1.89943,0.00051,402.958,0.017,0.3836,0.0017,140.006,45.000,34174.01660,1.90670,404.839,31.876,45.069,45.000,0.00,0.09,-272.72,-272.79,-5,979,-3,21.9,10.8,-10.1,21.5,11.1,-10.0,5.73,1.95,-8.2,26.2
2015-05-26 00:59:00,0.0,1.89919,0.00051,402.903,0.032,0.3845,0.0013,140.004,45.000,34174.54001,1.90647,404.787,31.881,45.068,45.000,0.00,0.09,-272.72,-272.78,-5,979,-3,21.9,10.8,-10.1,21.6,11.2,-10.0,5.73,1.94,-8.2,26.1
2015-05-26 01:00:00,0.0,1.89926,0.00025,402.927,0.018,0.3848,0.0016,139.996,45.000,34172.50751,1.90651,404.813,31.888,45.068,45.000,0.00,0.09,-272.72,-272.78,-4,979,-3,21.9,10.8,-10.1,21.5,11.2,-10.0,5.73,1.96,-8.2,26.2
2015-05-26 01:01:00,0.0,1.89919,0.00044,402.921,0.029,0.3849,0.0016,140.001,45.000,34173.16715,1.90649,404.807,31.887,45.068,45.000,0.00,0.09,-272.72,-272.79,-5,980,-3,21.9,10.8,-10.2,21.6,11.1,-10.0,5.73,1.95,-8.2,26.2
2015-05-26 01:02:00,0.0,1.89927,0.00029,402.893,0.025,0.3875,0.0015,139.999,45.000,34173.10816,1.90655,404.791,31.878,45.068,45.000,0.00,0.09,-272.72,-272.78,-5,979,-3,21.9,10.8,-10.1,21.6,11.2,-9.9,5.73,1.95,-8.2,26.2
2015-05-26 01:03:00,0.0,1.89922,0.00029,402.875,0.034,0.3899,0.0014,139.998,45.000,34173.97877,1.90659,404.786,31.876,45.068,45.000,0.00,0.09,-272.72,-272.78,-4,979,-3,21.9,10.9,-10.0,21.6,11.3,-9.8,5.73,1.95,-8.2,26.2
2015-05-26 01:04:00,0.0,1.89908,0.00044,402.896,0.030,0.3889,0.0012,140.002,45.000,34174.02157,1.90641,404.802,31.875,45.068,45.000,0.00,0.09,-272.72,-272.78,-5,979,-3,21.9,10.9,-10.0,21.6,11.2,-9.9,5.73,1.95,-8.2,26.2
2015-05-26 01:05:00,0.0,1.89927,0.00022,402.877,0.031,0.3859,0.0014,139.998,45.000,34173.75841,1.90658,404.767,31.875,45.068,45.000,0.00,0.09,-272.72,-272.77,-5,979,-3,21.9,10.9,-10.0,21.6,11.2,-9.9,5.73,1.95,-8.2,26.2
2015-05-26 01:06:00,0.0,1.89908,0.00029,402.899,0.020,0.3885,0.0019,139.999,45.000,34175.08220,1.90642,404.802,31.877,45.069,45.000,0.00,0.09,-272.72,-272.77,-4,980,-3,21.9,10.9,-10.0,21.6,11.2,-9.8,5.73,1.95,-8.2,26.2
2015-05-26 01:07:00,0.0,1.89908,0.00041,402.924,0.038,0.3879,0.0015,139.997,45.000,34175.82677,1.90639,404.823,31.877,45.068,45.000,0.00,0.09,-272.73,-272.78,-5,979,-3,21.9,10.9,-10.0,21.6,11.2,-9.9,5.73,1.95,-8.2,26.2
2015-05-26 01:08:00,0.0,1.89907,0.00030,402.914,0.029,0.3893,0.0018,140.001,45.000,34177.62115,1.90645,404.824,31.876,45.068,45.000,0.00,0.09,-272.72,-272.78,-4,979,-3,21.9,10.9,-10.0,21.6,11.3,-9.9,5.73,1.95,-8.2,26.2
2015-05-26 01:09:00,0.0,1.89928,0.00030,402.879,0.023,0.3907,0.0014,139.999,45.000,34175.05152,1.90665,404.793,31.879,45.068,45.000,0.00,0.09,-272.72,-272.77,-5,980,-3,21.9,10.9,-9.9,21.6,11.3,-9.8,5.73,1.95,-8.2,26.2
2015-05-26 01:10:00,0.0,1.89931,0.00038,402.894,0.030,0.3914,0.0017,140.000,45.000,34175.15563,1.90670,404.814,31.876,45.068,45.000,0.00,0.09,-272.72,-272.78,-4,979,-3,21.9,11.0,-9.9,21.6,11.3,-9.8,5.73,1.96,-8.2,26.2
2015-05-26 01:11:00,0.0,1.89939,0.00037,402.909,0.026,0.3939,0.0022,140.001,45.000,34175.41655,1.90687,404.834,31.876,45.069,45.000,0.00,0.09,-272.72,-272.78,-5,980,-3,21.9,11.1,-9.8,21.6,11.4,-9.7,5.73,1.96,-8.2,26.1
2015-05-26 01:12:00,0.0,1.89929,0.00033,402.883,0.023,0.3971,0.0011,140.004,45.000,34175.51689,1.90677,404.831,31.884,45.069,45.000,0.00,0.09,-272.71,-272.78,-5,979,-3,21.9,11.2,-9.7,21.6,11.5,-9.6,5.73,1.96,-8.2,26.1
2015-05-26 01:13:00,0.0,1.89928,0.00038,402.862,0.032,0.3979,0.0016,140.002,45.000,34175.47779,1.90680,404.812,31.887,45.068,45.000,0.00,0.09,-272.72,-272.78,-5,979,-3,21.9,11.2,-9.6,21.6,11.5,-9.5,5.73,1.97,-8.2,26.1
2015-05-26 01:14:00,0.0,1.89934,0.00032,402.858,0.024,0.3970,0.0022,140.004,45.000,34176.49036,1.90686,404.804,31.886,45.068,45.000,0.00,0.09,-272.73,-272.78,-5,979,-3,21.9,11.2,-9.7,21.6,11.6,-9.5,5.73,1.96,-8.2,26.1
2015-05-26 01:15:00,0.0,1.89945,0.00044,402.877,0.046,0.3940,0.0020,140.000,45.000,34174.26768,1.90689,404.809,31.902,45.069,45.000,0.00,0.09,-272.72,-272.77,-4,979,-3,21.9,11.0,-9.8,21.6,11.4,-9.6,5.73,1.97,-8.2,26.1
2015-05-26 01:16:00,0.0,1.89962,0.00030,402.899,0.032,0.3903,0.0017,140.000,45.000,34173.17089,1.90699,404.810,31.927,45.068,45.000,0.00,0.09,-272.72,-272.78,-5,980,-3,21.9,11.0,-9.9,21.6,11.3,-9.7,5.73,1.96,-8.2,26.2
2015-05-26 01:17:00,0.0,1.89976,0.00048,402.922,0.032,0.3913,0.0014,140.000,45.000,34171.84137,1.90718,404.840,31.928,45.068,45.000,0.00,0.09,-272.73,-272.78,-5,979,-3,21.9,11.0,-9.9,21.6,11.3,-9.7,5.73,1.97,-8.2,26.2
2015-05-26 01:18:00,0.0,1.89984,0.00032,402.913,0.034,0.3928,0.0010,139.999,45.000,34171.04137,1.90725,404.838,31.934,45.068,45.000,0.00,0.09,-272.72,-272.78,-4,979,-3,21.9,11.0,-9.9,21.6,11.4,-9.7,5.73,1.96,-8.2,26.3
2015-05-26 01:19:00,0.0,1.89977,0.00032,402.909,0.025,0.3931,0.0026,139.999,45.000,34170.77442,1.90719,404.833,31.933,45.068,45.000,0.00,0.09,-272.72,-272.77,-5,980,-3,22.0,11.0,-9.9,21.6,11.4,-9.7,5.73,1.96,-8.2,26.3
2015-05-26 01:20:00,0.0,1.89967,0.00043,402.900,0.031,0.3937,0.0015,140.003,45.000,34174.47076,1.90715,404.831,31.935,45.068,45.000,0.00,0.09,-272.72,-272.78,-5,979,-3,22.0,11.0,-9.8,21.6,11.4,-9.7,5.73,1.97,-8.2,26.2
2015-05-26 01:21:00,0.0,1.89983,0.00035,402.887,0.030,0.3943,0.0017,139.997,45.000,34170.18577,1.90726,404.818,31.937,45.068,45.000,0.00,0.09,-272.72,-272.78,-5,980,-3,22.0,11.1,-9.8,21.6,11.4,-9.7,5.73,1.97,-8.2,26.2
2015-05-26 01:22:00,0.0,1.89970,0.00043,402.896,0.031,0.3966,0.0018,140.000,45.000,34170.48493,1.90724,404.841,31.938,45.068,45.000,0.00,0.09,-272.72,-272.77,-5,979,-3,22.0,11.1,-9.7,21.6,11.5,-9.6,5.73,1.97,-8.2,26.1
2015-05-26 01:23:00,0.0,1.89925,0.00047,402.872,0.036,0.3981,0.0020,140.001,45.000,34174.39786,1.90677,404.824,31.938,45.068,45.000,0.00,0.09,-272.72,-272.78,-5,980,-3,22.0,11.2,-9.6,21.6,11.5,-9.5,5.73,1.96,-8.1,26.2
2015-05-26 01:24:00,0.0,1.89944,0.00057,402.890,0.040,0.3963,0.0028,140.001,45.000,34173.81898,1.90693,404.830,31.938,45.068,45.000,0.00,0.09,-272.73,-272.79,-5,980,-3,22.0,11.1,-9.7,21.6,11.5,-9.6,5.73,1.97,-8.2,26.1
2015-05-26 01:25:00,0.0,1.89946,0.00024,402.910,0.033,0.3914,0.0016,140.003,45.000,34175.87389,1.90687,404.828,31.938,45.068,45.000,0.00,0.09,-272.72,-272.78,-5,980,-3,22.0,10.9,-9.9,21.6,11.3,-9.8,5.73,1.96,-8.2,26.2
2015-05-26 01:26:00,0.0,1.89968,0.00034,402.902,0.030,0.3926,0.0016,140.000,45.000,34176.90886,1.90708,404.826,31.933,45.068,45.000,0.00,0.09,-272.72,-272.78,-5,980,-3,22.0,11.0,-9.9,21.6,11.3,-9.8,5.73,1.96,-8.2,26.2
2015-05-26 01:27:00,0.0,1.89960,0.00039,402.910,0.032,0.3914,0.0018,140.003,45.000,34177.71131,1.90698,404.828,31.917,45.068,45.000,0.00,0.09,-272.72,-272.79,-5,980,-3,22.0,10.9,-9.9,21.6,11.3,-9.8,5.73,1.96,-8.1,26.2
2015-05-26 01:28:00,0.0,1.89953,0.00030,402.915,0.034,0.3891,0.0017,140.000,45.000,34177.46163,1.90688,404.820,31.924,45.068,45.000,0.00,0.09,-272.72,-272.78,-5,979,-3,22.0,10.9,-10.0,21.6,11.2,-9.8,5.73,1.95,-8.2,26.3
2015-05-26 01:29:00,0.0,1.89979,0.00021,402.930,0.027,0.3888,0.0019,140.002,45.000,34176.79237,1.90716,404.837,31.927,45.069,45.000,0.00,0.09,-272.72,-272.77,-5,980,-3,22.0,10.9,-10.0,21.6,11.2,-9.9,5.73,1.96,-8.1,26.1
2015-05-26 01:30:00,0.0,1.89999,0.00035,402.906,0.027,0.3916,0.0021,140.002,45.000,34177.64228,1.90738,404.825,31.902,45.069,45.000,0.00,0.09,-272.72,-272.78,-5,980,-3,22.0,10.9,-9.9,21.6,11.3,-9.8,5.73,1.96,-8.2,26.2
2015-05-26 01:31:00,0.0,1.89951,0.00042,402.920,0.033,0.3952,0.0019,139.995,45.000,34176.01125,1.90701,404.855,31.908,45.069,45.000,0.00,0.09,-272.73,-272.78,-4,979,-3,22.0,11.1,-9.8,21.6,11.4,-9.6,5.73,1.96,-8.1,26.2
2015-05-26 01:32:00,0.0,1.89936,0.00030,402.899,0.041,0.3968,0.0025,139.996,45.000,34178.20990,1.90687,404.844,31.933,45.069,45.000,0.00,0.09,-272.72,-272.78,-5,980,-3,22.0,11.1,-9.7,21.6,11.5,-9.6,5.73,1.95,-8.2,26.1
2015-05-26 01:33:00,0.0,1.89951,0.00033,402.908,0.014,0.3938,0.0019,139.999,45.000,34179.76976,1.90692,404.838,31.931,45.068,45.000,0.00,0.09,-272.72,-272.77,-5,980,-3,22.0,11.0,-9.8,21.7,11.4,-9.6,5.73,1.95,-8.1,26.2
2015-05-26 01:34:00,0.0,1.89951,0.00043,402.920,0.029,0.3920,0.0014,139.995,45.000,34177.37072,1.90692,404.842,31.931,45.068,45.000,0.00,0.09,-272.72,-272.78,-5,980,-3,22.0,11.0,-9.9,21.6,11.3,-9.7,5.73,1.95,-8.1,26.3
2015-05-26 01:35:00,0.0,1.89976,0.00044,402.922,0.033,0.3887,0.0024,140.000,45.000,34179.81203,1.90715,404.830,31.934,45.068,45.000,0.00,0.09,-272.72,-272.78,-5,980,-3,22.0,10.9,-10.0,21.6,11.3,-9.8,5.73,1.95,-8.1,26.2
2015-05-26 01:36:00,0.0,1.89974,0.00033,402.944,0.036,0.3854,0.0017,139.997,45.000,34179.32015,1.90696,404.830,31.936,45.068,45.000,0.00,0.09,-272.72,-272.77,-5,980,-3,22.0,10.8,-10.1,21.7,11.1,-9.9,5.73,1.95,-8.1,26.2
2015-05-26 01:37:00,0.0,1.89975,0.00039,402.931,0.031,0.3881,0.0016,140.000,45.000,34179.43177,1.90711,404.831,31.934,45.068,45.000,0.00,0.09,-272.72,-272.78,-5,981,-3,22.0,10.8,-10.0,21.7,11.2,-9.9,5.73,1.95,-8.1,26.2
2015-05-26 01:38:00,0.0,1.89998,0.00036,402.948,0.019,0.3895,0.0014,140.002,45.000,34177.94508,1.90736,404.857,31.936,45.068,45.000,0.00,0.09,-272.72,-272.78,-5,980,-3,22.0,10.9,-10.0,21.7,11.2,-9.8,5.73,1.95,-8.1,26.2
2015-05-26 01:39:00,0.0,1.90006,0.00037,402.922,0.038,0.3923,0.0015,140.004,45.000,34178.57602,1.90750,404.847,31.938,45.068,45.000,0.00,0.09,-272.72,-272.78,-5,980,-3,22.0,10.9,-9.9,21.7,11.3,-9.8,5.73,1.95,-8.1,26.3
2015-05-26 01:40:00,0.0,1.89960,0.00042,402.909,0.017,0.3910,0.0023,140.000,45.000,34179.58144,1.90696,404.825,31.945,45.068,45.000,0.00,0.09,-272.72,-272.78,-5,980,-3,22.0,10.9,-9.9,21.7,11.3,-9.7,5.73,1.95,-8.1,26.3
2015-05-26 01:41:00,0.0,1.89988,0.00032,402.951,0.036,0.3895,0.0013,139.998,45.000,34180.55476,1.90727,404.860,31.940,45.068,45.000,0.00,0.09,-272.72,-272.79,-5,979,-3,22.0,10.9,-10.0,21.7,11.2,-9.8,5.73,1.95,-8.1,26.3
2015-05-26 01:42:00,0.0,1.90016,0.00031,402.972,0.026,0.3878,0.0019,140.000,45.000,34178.30854,1.90747,404.871,31.941,45.068,45.000,0.00,0.09,-272.72,-272.78,-5,980,-3,22.0,10.8,-10.0,21.7,11.2,-9.9,5.73,1.95,-8.1,26.3
2015-05-26 01:43:00,0.0,1.89998,0.00045,402.969,0.039,0.3895,0.0026,140.001,45.000,34178.27334,1.90735,404.878,31.938,45.068,45.000,0.00,0.09,-272.72,-272.78,-5,980,-3,22.0,10.9,-9.9,21.7,11.2,-9.8,5.73,1.95,-8.1,26.3
2015-05-26 01:44:00,0.0,1.89996,0.00062,402.962,0.028,0.3917,0.0019,140.000,45.000,34178.64054,1.90736,404.878,31.938,45.068,45.000,0.00,0.09,-272.73,-272.78,-5,980,-3,22.1,10.9,-9.9,21.7,11.3,-9.7,5.73,1.95,-8.1,26.3
2015-05-26 01:45:00,0.0,1.90001,0.00057,402.945,0.031,0.3903,0.0018,139.999,45.000,34178.63573,1.90741,404.859,31.938,45.068,45.000,0.00,0.09,-272.72,-272.78,-5,980,-3,22.0,10.9,-9.9,21.7,11.2,-9.8,5.73,1.95,-8.1,26.3
2015-05-26 01:46:00,0.0,1.90023,0.00039,402.918,0.025,0.3928,0.0021,140.001,45.000,34179.32800,1.90766,404.844,31.938,45.068,45.000,0.00,0.09,-272.72,-272.77,-5,980,-3,22.0,10.9,-9.9,21.7,11.3,-9.7,5.73,1.95,-8.1,26.3